Location: Neuvy Saint Sepulchre
(46.5953°N, 1.8122°E)
Time: 11:26:36
(UTC+02:00)

ISS - Pass Details

Date: 06 May 2021
Orbit: 417 x 422 km, 51.6° (Epoch: 15 May)

Event Time Altitude Azimuth Distance (km) Brightness Sun altitude
Exits shadow 04:21:14 29° 290° (WNW) 798 -2.6 -18.2°
Maximum altitude 04:22:31 45° 344° (NNW) 582 -2.8 -18.0°
Drops below altitude 10° 04:25:47 10° 59° (ENE) 1,507 0.1 -17.7°
Sets 04:27:57 0° 66° (ENE) 2,374 1.2 -17.5°
